Weather History for Pampa / Mesa Vista, TX

Change the Weather History Date:

Saturday, January 5, 2013

  Actual Average (KBGD) Record (KBGD)
Temperature  
Mean Temperature 34 °F 38 °F  
Max Temperature 44 °F 50 °F 78 °F (1956)
Min Temperature 24 °F 25 °F 0 °F (1971)
Degree Days  
Heating Degree Days 31 27  
Month to date heating degree days 139  
Since 1 July heating degree days 1676  
Cooling Degree Days 0 0  
Month to date cooling degree days 0  
Year to date cooling degree days 0  
Moisture  
Dew Point 23 °F    
Average Humidity 68    
Maximum Humidity 93    
Minimum Humidity 37    
Precipitation  
Precipitation 0.00 in 0.01 in 0.48 in (1960)
Month to date precipitation 0.08  
Year to date precipitation 0.08  
Snow  
Snow 0.00 in - 6.70 in (1960)
Month to date snowfall  
Since 1 July snowfall  
Snow Depth -    
Sea Level Pressure  
Sea Level Pressure 30.19 in    
Wind  
Wind Speed 10 mph (WNW)    
Max Wind Speed 20 mph    
Max Gust Speed 25 mph    
Visibility 10 miles    
Events      
T = Trace of Precipitation, MM = Missing Value Source: NWS Daily Summary

Daily Weather History Graph

Daily Weather History Graph

Search for Another Location

Airport:

Trip Planner

Search our weather history database for the weather conditions in past years. The results will help you decide how hot, cold, wet, or windy it might be!

Date:

Astronomy

Jan. 05, 2013 Rise Set
Actual Time 7:54 AM CST 5:44 PM CST
Civil Twilight 7:26 AM CST 6:13 PM CST
Nautical Twilight 6:54 AM CST 6:44 PM CST
Astronomical Twilight 6:23 AM CST 7:15 PM CST
Moon 1:10 AM CST (1/5) 12:29 PM CST (1/5)
Length of Visible Light 10h 46m
Length of Day
9h 49m
Last Quarter, 44% of the Moon is Illuminated
Jan 5
Last Quarter
Jan 11
New
Jan 18
First Quarter
Jan 26
Full
Feb 3
Last Quarter

Hourly Weather History & Observations

Time (CST) Temp. Windchill Dew Point Humidity Pressure Visibility Wind Dir Wind Speed Gust Speed Precip Events Conditions
12:15 AM 33.8 °F 25.3 °F 28.4 °F 81% 30.13 in 10.0 mi SW 11.5 mph - N/A   Mostly Cloudy
12:55 AM 30.2 °F 22.6 °F 26.6 °F 86% 30.12 in 10.0 mi SSW 8.1 mph - N/A   Clear
1:15 AM 32.0 °F 23.6 °F 26.6 °F 80% 30.11 in 10.0 mi SSW 10.4 mph - N/A   Clear
1:35 AM 32.0 °F 23.0 °F 26.6 °F 80% 30.11 in 10.0 mi SW 11.5 mph 16.1 mph N/A   Clear
1:55 AM 32.0 °F 23.0 °F 26.6 °F 80% 30.10 in 10.0 mi SSW 11.5 mph - N/A   Clear
2:15 AM 32.0 °F 23.0 °F 26.6 °F 80% 30.10 in 10.0 mi SSW 11.5 mph - N/A   Clear
2:35 AM 30.2 °F 20.8 °F 26.6 °F 86% 30.10 in 10.0 mi SSW 11.5 mph - N/A   Clear
2:55 AM 32.0 °F 23.0 °F 26.6 °F 80% 30.09 in 10.0 mi SSW 11.5 mph - N/A   Clear
3:15 AM 32.0 °F 23.0 °F 26.6 °F 80% 30.09 in 10.0 mi SW 11.5 mph - N/A   Scattered Clouds
3:35 AM 30.2 °F 21.3 °F 26.6 °F 86% 30.09 in 10.0 mi SW 10.4 mph - N/A   Scattered Clouds
4:15 AM 28.4 °F 20.4 °F 26.6 °F 93% 30.08 in 10.0 mi SSW 8.1 mph - N/A   Clear
4:35 AM 28.4 °F 20.4 °F 24.8 °F 86% 30.08 in 10.0 mi SSW 8.1 mph - N/A   Clear
4:55 AM 28.4 °F 21.2 °F 24.8 °F 86% 30.08 in 10.0 mi SW 6.9 mph - N/A   Clear
5:15 AM 26.6 °F 19.1 °F 23.0 °F 86% 30.08 in 10.0 mi SW 6.9 mph - N/A   Clear
5:35 AM 26.6 °F 19.1 °F 23.0 °F 86% 30.09 in 10.0 mi SW 6.9 mph - N/A   Clear
6:15 AM 24.8 °F 16.9 °F 23.0 °F 93% 30.08 in 10.0 mi SSW 6.9 mph - N/A   Clear
6:35 AM 26.6 °F 16.2 °F 23.0 °F 86% 30.08 in 10.0 mi SW 11.5 mph - N/A   Clear
6:55 AM 26.6 °F 17.5 °F 23.0 °F 86% 30.08 in 10.0 mi SW 9.2 mph - N/A   Clear
7:15 AM 24.8 °F 14.6 °F 23.0 °F 93% 30.10 in 10.0 mi WSW 10.4 mph - N/A   Clear
7:35 AM 24.8 °F 15.3 °F 23.0 °F 93% 30.11 in 10.0 mi WSW 9.2 mph - N/A   Clear
8:15 AM 24.8 °F 15.3 °F 21.2 °F 86% 30.12 in 10.0 mi WSW 9.2 mph - N/A   Clear
8:35 AM 26.6 °F 17.5 °F 21.2 °F 80% 30.14 in 10.0 mi West 9.2 mph - N/A   Clear
9:15 AM 28.4 °F 21.2 °F 19.4 °F 69% 30.14 in 10.0 mi WSW 6.9 mph - N/A   Clear
9:35 AM 28.4 °F 20.4 °F 19.4 °F 69% 30.14 in 10.0 mi West 8.1 mph - N/A   Clear
9:55 AM 30.2 °F 22.6 °F 19.4 °F 64% 30.15 in 10.0 mi West 8.1 mph - N/A   Clear
10:15 AM 32.0 °F 24.2 °F 15.8 °F 51% 30.15 in 10.0 mi WNW 9.2 mph - N/A   Clear
10:35 AM 33.8 °F 26.4 °F 14.0 °F 44% 30.17 in 10.0 mi NW 9.2 mph - N/A   Clear
10:55 AM 35.6 °F 27.5 °F 15.8 °F 44% 30.19 in 10.0 mi NW 11.5 mph - N/A   Clear
11:15 AM 37.4 °F 28.9 °F 17.6 °F 45% 30.19 in 10.0 mi NW 13.8 mph 19.6 mph N/A   Clear
11:35 AM 37.4 °F 28.5 °F 19.4 °F 48% 30.19 in 10.0 mi NW 15.0 mph - N/A   Clear
11:55 AM 37.4 °F 28.2 °F 19.4 °F 48% 30.19 in 10.0 mi NNW 16.1 mph - N/A   Clear
12:15 PM 41.0 °F 33.5 °F 19.4 °F 42% 30.18 in 10.0 mi NNW 13.8 mph 18.4 mph N/A   Clear
12:35 PM 41.0 °F 34.7 °F 19.4 °F 42% 30.18 in 10.0 mi NNW 10.4 mph - N/A   Clear
12:55 PM 42.8 °F 35.8 °F 19.4 °F 39% 30.17 in 10.0 mi NNW 13.8 mph 17.3 mph N/A   Clear
1:15 PM 42.8 °F 35.1 °F 19.4 °F 39% 30.17 in 10.0 mi NW 16.1 mph - N/A   Clear
1:35 PM 44.6 °F 37.8 °F 21.2 °F 39% 30.17 in 10.0 mi NW 15.0 mph 25.3 mph N/A   Clear
1:55 PM 44.6 °F 37.8 °F 21.2 °F 39% 30.17 in 10.0 mi NNW 15.0 mph 20.7 mph N/A   Clear
2:15 PM 44.6 °F 37.8 °F 21.2 °F 39% 30.17 in 10.0 mi NW 15.0 mph 23.0 mph N/A   Clear
2:35 PM 44.6 °F 36.9 °F 21.2 °F 39% 30.17 in 10.0 mi NW 18.4 mph 25.3 mph N/A   Clear
2:55 PM 44.6 °F 37.4 °F 19.4 °F 37% 30.17 in 10.0 mi NW 16.1 mph - N/A   Clear
3:15 PM 44.6 °F 36.6 °F 21.2 °F 39% 30.18 in 10.0 mi NNW 19.6 mph 24.2 mph N/A   Clear
3:35 PM 44.6 °F 36.9 °F 21.2 °F 39% 30.20 in 10.0 mi NNW 18.4 mph - N/A   Clear
3:55 PM 42.8 °F 34.8 °F 21.2 °F 42% 30.20 in 10.0 mi North 17.3 mph 21.9 mph N/A   Clear
4:15 PM 42.8 °F 35.8 °F 21.2 °F 42% 30.22 in 10.0 mi North 13.8 mph 17.3 mph N/A   Clear
4:35 PM 42.8 °F 36.2 °F 21.2 °F 42% 30.23 in 10.0 mi North 12.7 mph - N/A   Clear
5:15 PM 41.0 °F 37.1 °F 21.2 °F 45% 30.25 in 10.0 mi North 5.8 mph - N/A   Clear
5:35 PM 37.4 °F 32.1 °F 23.0 °F 56% 30.26 in 10.0 mi North 6.9 mph - N/A   Clear
5:55 PM 35.6 °F 32.8 °F 23.0 °F 60% 30.27 in 10.0 mi NNE 3.5 mph - N/A   Clear
6:15 PM 35.6 °F 29.2 °F 26.6 °F 70% 30.27 in 10.0 mi North 8.1 mph - N/A   Clear
6:35 PM 33.8 °F 27.7 °F 26.6 °F 75% 30.29 in 10.0 mi North 6.9 mph - N/A   Clear
6:55 PM 33.8 °F 27.7 °F 26.6 °F 75% 30.29 in 10.0 mi North 6.9 mph - N/A   Clear
7:15 PM 33.8 °F 27.0 °F 26.6 °F 75% 30.29 in 10.0 mi NNW 8.1 mph - N/A   Clear
7:35 PM 33.8 °F 28.6 °F 26.6 °F 75% 30.30 in 10.0 mi NNW 5.8 mph - N/A   Clear
7:55 PM 32.0 °F 24.8 °F 26.6 °F 80% 30.30 in 10.0 mi NW 8.1 mph - N/A   Clear
8:15 PM 30.2 °F 23.4 °F 26.6 °F 86% 30.31 in 10.0 mi NW 6.9 mph - N/A   Clear
8:55 PM 32.0 °F - 26.6 °F 80% 30.32 in 10.0 mi Calm Calm - N/A   Clear
9:15 PM 32.0 °F 28.7 °F 26.6 °F 80% 30.32 in 10.0 mi North 3.5 mph - N/A   Clear
9:35 PM 30.2 °F 26.7 °F 24.8 °F 80% 30.33 in 10.0 mi NNW 3.5 mph - N/A   Clear
9:55 PM 32.0 °F 25.6 °F 26.6 °F 80% 30.33 in 10.0 mi NW 6.9 mph - N/A   Clear
10:15 PM 28.4 °F 23.3 °F 23.0 °F 80% 30.34 in 10.0 mi West 4.6 mph - N/A   Clear
10:35 PM 28.4 °F 24.6 °F 23.0 °F 80% 30.35 in 10.0 mi West 3.5 mph - N/A   Clear
11:15 PM 26.6 °F 16.8 °F 23.0 °F 86% 30.36 in 10.0 mi SW 10.4 mph - N/A   Clear
11:35 PM 26.6 °F 19.1 °F 23.0 °F 86% 30.37 in 10.0 mi SW 6.9 mph - N/A   Clear
11:55 PM 24.8 °F 16.1 °F 23.0 °F 93% 30.37 in 10.0 mi WSW 8.1 mph - N/A   Clear